[[{"header":{"parameterUnit":"m.s-1","parameterCategory":1,"la1":30.2991,"la2":30.254,"lo1":-89.0895,"lo2":-89.0444,"dy":0.0017,"dx":0.0017,"nx":28,"ny":28,"refTime":"2024-04-19T09:00:00:Z","depth":0,"parameterNumber":2,"parameterNumberName":"U-component_of_WINDS"},"data":[0,0,0,0,0,0,0,0,0,0,0,0,0,0,0,0,0,0,0,0,0,0,0,0,0,0,0,0,0,0,0,0,0,0,0,0,0,0,0,0,0,0,0,0,0,0,0,0,0,0,0,0,0,0,0,0,0,0,0.4442,0.4442,0,0.45,0.4501,0.4501,0.4516,0.4516,0.4516,0.4515,0.4574,0.4576,0.4578,0,0,0,0,0,0,0,0,0,0,0,0,0,0.4341,0.4342,0.4441,0.4442,0.4443,0.45,0.4501,0.4502,0.4516,0.4516,0.4515,0.4515,0.4573,0.4576,0.4578,0,0,0,0,0,0,0,0,0,0,0,0,0,0.439,0.4343,0.4441,0.4457,0.4459,0.45,0.4501,0.4502,0.4516,0.4516,0.4515,0.4515,0.4573,0.4575,0.4578,0.4607,0,0,0.4587,0.4588,0,0,0,0,0,0,0,0,0.4387,0.4394,0.4454,0.4456,0.4459,0.45,0.4487,0.4537,0.4517,0.4495,0.4515,0.4515,0.455,0.4555,0.4567,0.461,0.4612,0.4587,0.4589,0.459,0.4591,0,0,0,0,0,0,0,0.4384,0.4392,0.4465,0.4455,0.4458,0.4461,0.4467,0.4496,0.4525,0.4497,0.4498,0.4505,0.4551,0.4564,0.4568,0.4613,0.4587,0.459,0.4591,0.4593,0.4681,0.4682,0,0,0,0,0,0,0.4378,0.4389,0.4463,0.4466,0.4421,0.4463,0.447,0.4487,0.4524,0.4529,0.4505,0.4505,0.4559,0.4565,0.457,0.4606,0.459,0.4593,0.4594,0.4681,0.4681,0.4682,0,0,0,0,0,0,0.4376,0.4385,0.446,0.4428,0.4438,0.4465,0.4485,0.4489,0.4502,0.4531,0.4536,0.4513,0.4559,0.4566,0.4598,0.4608,0.4594,0.4597,0.468,0.4681,0.4682,0.4677,0,0,0,0,0,0,0.4373,0.4384,0.4395,0.4428,0.4439,0.4487,0.4485,0.449,0.4507,0.4508,0.454,0.4544,0.4559,0.4593,0.46,0.4612,0.4599,0.4679,0.468,0.4682,0.4676,0.4678,0.4679,0,0,0,0,0,0.4369,0.4391,0.4396,0.4405,0.4455,0.4488,0.4494,0.4511,0.4508,0.4519,0.4538,0.4543,0.4606,0.4596,0.4604,0.4617,0.4679,0.468,0.4681,0.4676,0.4677,0.4679,0,0,0,0,0,0,0.4359,0.4396,0.4401,0.4435,0.4458,0.449,0.4505,0.4512,0.4537,0.4536,0.4556,0.4563,0.4592,0.4608,0.4597,0.4646,0.4642,0.4645,0.4635,0.4637,0.4638,0.4633,0.4601,0,0,0,0,0,0.4361,0.4385,0.4416,0.4443,0.4454,0.4478,0.4493,0.4504,0.4528,0.4538,0.4559,0.4582,0.4607,0.4623,0.4647,0.4679,0.4685,0.4691,0.4692,0.4693,0.4696,0.4713,0.4715,0.4687,0.4687,0.4687,0,0,0.4364,0.4388,0.4402,0.4441,0.446,0.4484,0.4486,0.4511,0.4529,0.4542,0.4572,0.4588,0.4616,0.4647,0.4662,0.4661,0.4705,0.4695,0.4695,0.4697,0.4714,0.4717,0.4719,0.4688,0.4688,0.4688,0,0,0.4383,0.4404,0.4428,0.4447,0.4476,0.4492,0.4497,0.4528,0.4539,0.4571,0.458,0.4602,0.4644,0.4663,0.4678,0.4703,0.4709,0.471,0.4717,0.4733,0.4735,0.4738,0.4746,0.4749,0.4713,0.4713,0.4713,0,0.4384,0.4421,0.4439,0.4464,0.4481,0.4494,0.4518,0.4535,0.4571,0.4582,0.458,0.4633,0.4652,0.4688,0.4694,0.4706,0.4712,0.4707,0.4734,0.4736,0.4738,0.4746,0.475,0.4713,0.4713,0.4713,0.4713,0,0.442,0.4446,0.4462,0.4496,0.4515,0.4539,0.456,0.4576,0.4585,0.4601,0.4632,0.4655,0.4684,0.4694,0.4703,0.473,0.4728,0.473,0.4726,0.4741,0.4749,0.4752,0.4713,0.4713,0.4713,0.4713,0,0,0.4435,0.4478,0.4484,0.4499,0.4532,0.4552,0.4576,0.4605,0.4618,0.4642,0.4663,0.4698,0.4699,0.4716,0.4728,0.4742,0.476,0.4742,0.4743,0.4744,0.4791,0.4789,0.4793,0.4764,0.4765,0.4765,0.4788,0,0.4458,0.4503,0.4519,0.4556,0.4579,0.4591,0.4612,0.4634,0.4649,0.4671,0.4687,0.4711,0.4712,0.4722,0.4737,0.4755,0.4769,0.4753,0.4783,0.4784,0.4775,0.4797,0.4796,0.4816,0.4792,0.4792,0.4793,0,0.449,0.4514,0.4554,0.4583,0.4593,0.4612,0.4639,0.466,0.4685,0.4695,0.4713,0.4724,0.4749,0.4744,0.4779,0.4767,0.478,0.4791,0.4792,0.4795,0.4789,0.48,0.4823,0.4826,0.4798,0.4798,0.4797,0,0.4496,0.4539,0.4567,0.458,0.4615,0.4628,0.4643,0.4667,0.4683,0.4707,0.4717,0.4743,0.4758,0.4777,0.4794,0.4789,0.4827,0.4824,0.4835,0.4835,0.4843,0.4842,0.4868,0.4852,0.4852,0.4852,0.4852,0,0.4519,0.4543,0.457,0.4588,0.4614,0.4632,0.4658,0.4673,0.4695,0.4715,0.4727,0.4746,0.4767,0.4788,0.4801,0.4828,0.4834,0.4842,0.4845,0.4841,0.484,0.485,0.4848,0.4852,0.4852,0.4852,0.4852,0,0.453,0.455,0.4582,0.4612,0.4621,0.4638,0.4664,0.4681,0.4697,0.4722,0.4729,0.4753,0.4778,0.4797,0.483,0.4839,0.4867,0.487,0.4859,0.486,0.4871,0.4869,0.4904,0.4909,0.4889,0.489,0.489,0,0.4544,0.4562,0.4594,0.4609,0.4624,0.4648,0.4664,0.4682,0.4699,0.4728,0.4742,0.4768,0.479,0.483,0.485,0.4875,0.4879,0.4889,0.4883,0.4878,0.4879,0.4877,0.4879,0.489,0.489,0.489,0.489,0,0.4565,0.4574,0.4598,0.4624,0.4643,0.4665,0.4687,0.4698,0.472,0.4738,0.4764,0.4781,0.4815,0.4841,0.4868,0.4883,0.489,0.4892,0.4896,0.4892,0.4884,0.4888,0.4861,0.4891,0.4891,0.4891,0.4891,0.4891,0.4578,0.4594,0.462,0.4645,0.4663,0.4683,0.4701,0.4718,0.4741,0.477,0.4779,0.4806,0.483,0.4867,0.4882,0.4903,0.4903,0.4909,0.491,0.4911,0.4911,0.4881,0.4908,0.4908,0.4908,0.4908,0.4908,0,0.46,0.4616,0.464,0.467,0.469,0.4695,0.4719,0.4735,0.4759,0.4781,0.4802,0.4832,0.4857,0.4879,0.4905,0.4917,0.4921,0.4923,0.4923,0.4926,0.491,0.4904,0.492,0.492,0.492,0.492,0.492,0.492,0.4613,0.4641,0.4653,0.469,0.4706,0.4733,0.4747,0.4765,0.4782,0.4815,0.4836,0.485,0.4872,0.4899,0.4922,0.4927,0.4936,0.4937,0.4944,0.4928,0.4927,0.4926,0.492,0.4939,0.4939,0.4958,0.4958,0.4958]},{"header":{"parameterUnit":"m.s-1","parameterCategory":1,"la1":30.2991,"la2":30.254,"lo1":-89.0895,"lo2":-89.0444,"dy":0.0017,"dx":0.0017,"nx":28,"ny":28,"refTime":"2024-04-19T09:00:00:Z","depth":0,"parameterNumber":3,"parameterNumberName":"V-component_of_WINDS"},"data":[0,0,0,0,0,0,0,0,0,0,0,0,0,0,0,0,0,0,0,0,0,0,0,0,0,0,0,0,0,0,0,0,0,0,0,0,0,0,0,0,0,0,0,0,0,0,0,0,0,0,0,0,0,0,0,0,0,0,1.7856,1.7857,0,1.7903,1.7903,1.7904,1.7868,1.7866,1.7865,1.7863,1.7911,1.7914,1.7916,0,0,0,0,0,0,0,0,0,0,0,0,0,1.7736,1.7739,1.7856,1.7857,1.7857,1.7903,1.7903,1.7904,1.7868,1.7866,1.7865,1.7863,1.791,1.7913,1.7916,0,0,0,0,0,0,0,0,0,0,0,0,0,1.7786,1.7739,1.7856,1.7845,1.7845,1.7902,1.7903,1.7904,1.7869,1.7866,1.7864,1.7862,1.7909,1.7913,1.7917,1.7988,0,0,1.7929,1.7931,0,0,0,0,0,0,0,0,1.7783,1.779,1.7846,1.7846,1.7845,1.7877,1.7878,1.7932,1.7869,1.786,1.7863,1.7861,1.7902,1.7906,1.792,1.799,1.7992,1.793,1.7932,1.7934,1.7935,0,0,0,0,0,0,0,1.778,1.7788,1.7875,1.7847,1.7847,1.7838,1.7842,1.7888,1.7893,1.786,1.7858,1.7864,1.7901,1.7916,1.7921,1.7993,1.793,1.7933,1.7936,1.7937,1.8124,1.8126,0,0,0,0,0,0,1.7778,1.7786,1.7873,1.7876,1.7808,1.7842,1.7847,1.7869,1.7892,1.7894,1.7866,1.7862,1.791,1.7916,1.7922,1.8007,1.7934,1.7938,1.794,1.8121,1.8124,1.8127,0,0,0,0,0,0,1.7775,1.7786,1.7871,1.783,1.784,1.7846,1.7872,1.7871,1.7887,1.7896,1.7897,1.788,1.7909,1.7917,1.7972,1.8008,1.7939,1.7943,1.8118,1.8122,1.8126,1.8177,0,0,0,0,0,0,1.7772,1.7785,1.7812,1.7831,1.7843,1.7921,1.7874,1.7874,1.7894,1.7889,1.791,1.7912,1.7907,1.7966,1.7976,1.8012,1.7946,1.8115,1.812,1.8124,1.8172,1.8182,1.8191,0,0,0,0,0,1.7768,1.7825,1.7814,1.7825,1.7877,1.7923,1.7929,1.7923,1.7897,1.7924,1.793,1.7911,1.8002,1.7972,1.7983,1.8021,1.8113,1.8118,1.8124,1.8168,1.818,1.8191,0,0,0,0,0,0,1.7811,1.7827,1.7815,1.7881,1.79,1.7917,1.7951,1.7937,1.7964,1.7959,1.795,1.7955,1.8014,1.8023,1.7989,1.8091,1.8053,1.8061,1.8083,1.8095,1.8104,1.8101,1.795,0,0,0,0,0,1.7828,1.7864,1.7876,1.7933,1.7943,1.7945,1.7965,1.7959,1.7979,1.7987,1.7998,1.8018,1.8051,1.8073,1.8104,1.8173,1.8177,1.8205,1.8214,1.8221,1.8229,1.8266,1.8278,1.8146,1.8146,1.8145,0,0,1.7864,1.7877,1.79,1.7942,1.7956,1.7993,1.7953,1.7994,1.8021,1.7993,1.8046,1.8055,1.8077,1.8139,1.8167,1.8148,1.8266,1.8229,1.8235,1.8238,1.8273,1.8285,1.8296,1.8149,1.8149,1.8148,0,0,1.7948,1.7962,1.801,1.8026,1.8048,1.8049,1.8061,1.8079,1.8083,1.8136,1.8116,1.8148,1.8206,1.8222,1.8238,1.8328,1.8311,1.8338,1.8387,1.8423,1.8433,1.8442,1.8475,1.8486,1.8345,1.8345,1.8345,0,1.799,1.8045,1.8037,1.808,1.8098,1.8074,1.8123,1.8138,1.817,1.8183,1.8162,1.8233,1.8246,1.8312,1.8334,1.8347,1.836,1.8336,1.8432,1.8441,1.845,1.848,1.8493,1.8348,1.8348,1.8348,1.8347,0,1.8095,1.8134,1.817,1.8201,1.8224,1.8269,1.8268,1.8292,1.8283,1.8286,1.834,1.8355,1.8388,1.8403,1.8395,1.8468,1.8455,1.8433,1.8395,1.8466,1.8494,1.8506,1.8353,1.8352,1.8351,1.835,0,0,1.8209,1.8234,1.8248,1.8262,1.8284,1.8314,1.8358,1.8391,1.8411,1.8434,1.847,1.8519,1.8499,1.8517,1.851,1.8542,1.8612,1.8515,1.8516,1.8533,1.8693,1.871,1.8723,1.86,1.8602,1.8604,1.8691,0,1.8295,1.8372,1.8365,1.8438,1.8474,1.8451,1.8489,1.8507,1.8511,1.8541,1.8545,1.858,1.855,1.8561,1.8591,1.8597,1.8644,1.859,1.8635,1.8636,1.8631,1.8738,1.8757,1.8838,1.8702,1.8704,1.8705,0,1.8405,1.8432,1.8508,1.8525,1.8539,1.8574,1.8603,1.8633,1.8652,1.8653,1.8673,1.866,1.8704,1.8665,1.8725,1.8689,1.8707,1.8712,1.8715,1.872,1.8676,1.8746,1.8864,1.8876,1.8723,1.8721,1.872,0,1.8481,1.8535,1.8588,1.86,1.8621,1.8646,1.8656,1.8673,1.8693,1.8719,1.8731,1.8761,1.8778,1.8802,1.8798,1.8769,1.886,1.882,1.8861,1.8862,1.8882,1.8881,1.9005,1.8892,1.8892,1.8892,1.8892,0,1.8578,1.8626,1.8623,1.8655,1.8708,1.8699,1.8752,1.8758,1.8774,1.8807,1.8789,1.882,1.8813,1.8844,1.8841,1.8892,1.8899,1.8901,1.89,1.8903,1.8903,1.8915,1.891,1.8895,1.8894,1.8894,1.8893,0,1.8673,1.8672,1.8728,1.8743,1.8748,1.8786,1.8799,1.8829,1.8831,1.8873,1.8883,1.8886,1.8921,1.892,1.896,1.8958,1.9021,1.9012,1.9014,1.9013,1.9055,1.9051,1.9191,1.9209,1.9084,1.9086,1.9087,0,1.8735,1.8771,1.879,1.8811,1.8822,1.8856,1.8876,1.8869,1.8891,1.8915,1.8943,1.8977,1.9004,1.9062,1.9067,1.9098,1.9091,1.9138,1.9096,1.9098,1.9092,1.9091,1.9094,1.9147,1.9148,1.9149,1.915,0,1.8846,1.8844,1.8873,1.8903,1.8928,1.8951,1.8971,1.899,1.8984,1.901,1.9046,1.9067,1.9108,1.9142,1.9171,1.918,1.9165,1.9163,1.9174,1.9179,1.9179,1.918,1.9038,1.916,1.9159,1.9158,1.9158,1.9157,1.8927,1.8958,1.8975,1.9009,1.9024,1.9044,1.9073,1.9078,1.9109,1.9141,1.9135,1.9176,1.9194,1.9231,1.9243,1.9275,1.9258,1.9275,1.9279,1.9284,1.9289,1.9173,1.928,1.928,1.928,1.9279,1.9279,0,1.9037,1.9047,1.9078,1.9108,1.9134,1.9116,1.9138,1.9162,1.9198,1.9216,1.9242,1.9284,1.9316,1.9324,1.9355,1.9379,1.9373,1.9388,1.9386,1.9389,1.9302,1.9289,1.9392,1.9392,1.9392,1.9392,1.9392,1.9392,1.9098,1.9149,1.9149,1.9207,1.9217,1.9257,1.9271,1.9289,1.9303,1.9351,1.9378,1.9382,1.9396,1.9428,1.9457,1.9458,1.9471,1.9489,1.9488,1.9406,1.9395,1.9384,1.9372,1.9492,1.9492,1.9573,1.9574,1.9574]}]]